Regional Weather Roundup
Issued by NWS Cleveland, OH

Home | Current Version | Previous Version | Text Only | Print | Product List | Glossary Off
Versions: 1 2 3 4 5 6 7 8 9 10 11 12 13 14 15 16 17 18 19 20 21 22 23 24 25 26 27 28 29 30 31 32 33 34 35 36 37 38 39 40 41 42 43 44 45 46 47 48 49 50

000
ASUS41 KCLE 041010
RWRCLE
OHIO REGIONAL WEATHER ROUNDUP
NATIONAL WEATHER SERVICE WILMINGTON, OH
500 AM EST WED MAR 04 2015

NOTE: "FAIR" INDICATES FEW OR NO CLOUDS BELOW 12,000 FEET WITH NO
SIGNIFICANT WEATHER AND/OR OBSTRUCTIONS TO VISIBILITY.

OHZ001>008-015>018-024>027-034-035-043-044-041100-
   NORTHWEST OHIO

CITY           SKY/WX    TMP DP  RH WIND       PRES   REMARKS
DEFIANCE       CLOUDY    33  26  75 NW6       29.86F WCI  28
FINDLAY        CLOUDY    34  30  85 W7        29.84S WCI  28
TOLEDO EXPRESS CLOUDY    32  24  72 W7        29.85R WCI  26
TOLEDO EXEC    CLOUDY    34  25  69 NW9       29.86R WCI  27
LIMA           CLOUDY    34  30  85 W10       29.86R WCI  26
$$

OHZ009>014-019>023-028>033-038-089-041100-
   NORTHEAST OHIO

CITY           SKY/WX    TMP DP  RH WIND       PRES   REMARKS
CLE-HOPKINS    CLOUDY    34  29  82 W7        29.86R WCI  28
CLE-LAKEFRONT  CLOUDY    34  30  85 SW9       29.84R WCI  27
CUY CO. ARPT   NOT AVBL
LORAIN-ELYRIA  CLOUDY    34  30  85 W7        29.85R WCI  28
ASHTABULA      CLOUDY    33  27  78 W6        29.83R WCI  28
AKRON-CANTON   CLOUDY    35  31  85 W7        29.83R FOG     WCI  29
WOOSTER        CLOUDY    33  31  92 W8        29.85R FOG     WCI  26
MANSFIELD      CLOUDY    33  30  88 W6        29.83S WCI  28
YOUNGSTOWN     DRIZZLE   34  30  85 W8        29.83R WCI  27
$$

OHZ042-051>053-060>062-070>072-077>081-041100-
  SOUTHWEST OHIO

CITY           SKY/WX    TMP DP  RH WIND       PRES   REMARKS
CINC-COVINGTON RAIN      37  35  92 NW5       29.89S FOG
CINC-LUNKEN    RAIN      36  36 100 N5        29.91R FOG
HAMILTON       LGT RAIN  35  35 100 CALM      29.90R FOG
DAYTON         LGT RAIN  34  32  92 W6        29.89R WCI  29
WRIGHT-PAT AFB LGT RAIN  34  33  98 W3        29.88R
DAYTON GENERAL MIX PCPN  35  34  96 NW6       29.87R FOG
WILMINGTON     LGT RAIN  35  33  92 NW3       29.86S FOG
$$

OHZ036-037-039>041-045>050-054>059-063>069-073>076-082>088-041100-
  CENTRAL AND SOUTHEAST OHIO

CITY           SKY/WX    TMP DP  RH WIND       PRES   REMARKS
COLUMBUS       LGTSLEET  34  34 100 CALM      29.87S FOG
OSU AIRPORT    LGT RAIN  33  32  96 CALM      29.86S FOG
BOLTON FIELD   LGT RAIN N/A N/A N/A CALM      29.86F
RICKENBACK AFB LGT RAIN  34  33  98 CALM      29.86F VSB 1
NEWARK         LGT RAIN  35  33  92 CALM      29.86S FOG
MARION         CLOUDY    34  30  85 NW5       29.85S FOG     WCI  30
LANCASTER      LGT RAIN  36  34  92 CALM      29.87S FOG
ZANESVILLE     LGT RAIN  35  34  96 SW3       29.87R FOG
NEW PHILLY     SNOW      34  31  88 CALM      29.87S VSB 1/2
$$


USA.gov is the U.S. government's official web portal to all federal, state and local government web resources and services.